sat.trackr.live / text

‹ back to catalog

STARLINK-11712 [DTC]

NORAD 64135 · 2025-111N

PAYLOAD ACTIVE UNKNOWN

§ Identity

Operator
Country
US
Launch date
2025-05-24
Launch site
AFETR
Launch vehicle
Mass (kg)
RCS (m²)

Purposes: comms

External: N2YO · Heavens-Above · Gunter

§ Orbital elements

Epoch: 2026-09-20T22:43:38.414496Z

Period
91.67 min
Inclination
42.9970°
Eccentricity
0.0000599
Mean motion
15.70884166 rev/d
Perigee alt
356.0 km
Apogee alt
356.8 km
Semi-major
6,734.5 km
B*
8.2299e-4
RAAN
237.2924°
Arg perigee
283.8078°
Mean anomaly
76.2723°
Rev number
7,734

§ Raw data

STARLINK-11712 [DTC]1 64135U 25111N   26263.94697239  .00106714  00000+0  82299-3 0  99982 64135  42.9970 237.2924 0000599 283.8078  76.2723 15.70884166 77344

JSON: /api/v1/satellites/64135 · /tle

For live sub-satellite position, see the globe view (requires WebGL).

§ Visibility from observer

Set your observer location to see the next 7 days of passes ≥ 10°. The values pass through the URL so the page stays shareable.

No JS? Fill the form by hand. The geolocation button needs JavaScript.